Location: Taipo
(41.0000°S, 175.9500°E)
Time: 13:03:32
(UTC+00:00)

Meteor 2-20 - Pass Details

Date: 30 July 2024
Orbit: 937 x 959 km, 82.5° (Epoch: 28 April)

Event Time Altitude Azimuth Distance (km) Brightness Sun altitude
Rises 05:48:00 0° 351° (N) 3,592 7.9 -5.7°
Reaches altitude 10° 05:50:28 10° 349° (N) 2,658 7.2 -6.1°
Maximum altitude 05:56:33 79° 263° (W) 975 4.7 -7.2°
Drops below altitude 10° 06:02:46 10° 174° (S) 2,705 6.6 -8.3°
Sets 06:05:18 0° 173° (S) 3,661 7.3 -8.8°
